Date String (YYYY-MM-DD hh:mm:ss) UTC,Instrument flags,Ambient pressure (hPa),Sample flow (lpm),Bypass flow (lpm),Sample temperature (°C),Ambient temperature (°C),ASC tube jacket temperature (°C),LED temperature (°C),Box temperature (°C),Sample RH (%),Span deviation,Mass concentration (μg/m³),Mass concentration (μg/m³),Mass concentration (μg/m³)
DateTimeUTC,F1_M11,P_M11,Q1_M11,Q2_M11,T1_M11,T2_M11,T3_M11,T4_M11,T5_M11,U1_M11,ZSPAN_M11,X0_M11,X2_M11,X1_M11
2022-05-12 10:00:00,,0819.8,5.01,0.00,29.1,28.3,00.0,38.2,30.9,26.3,-000.3,0030.24,0010.87,0007.37
2022-05-12 10:01:00,,0819.8,5.00,0.00,29.1,28.3,00.0,38.2,30.8,26.3,-000.2,0030.66,0011.00,0007.37
2022-05-12 10:02:00,,0819.8,5.00,0.00,29.1,28.3,00.0,38.2,30.8,26.3,-000.1,0030.73,0010.99,0007.36
2022-05-12 10:03:00,,0819.8,5.00,0.00,29.1,28.3,00.0,38.1,30.8,26.4,-000.1,0032.65,0011.02,0007.36
2022-05-12 10:04:00,,0819.8,5.00,0.00,29.0,28.3,00.0,38.1,30.8,26.3,-000.3,0033.41,0010.99,0007.36
2022-05-12 10:05:00,,0819.8,4.99,0.00,29.0,28.2,00.0,38.1,30.7,26.5,-000.6,0033.28,0010.95,0007.36
2022-05-12 10:06:00,,0819.7,5.01,0.00,29.0,28.2,00.0,38.1,30.7,26.7,-001.0,0032.35,0010.89,0007.36
2022-05-12 10:07:00,,0819.8,5.00,0.00,29.0,28.2,00.0,38.1,30.7,26.7,-001.3,0031.26,0010.91,0007.36
2022-05-12 10:08:00,,0819.8,5.01,0.00,29.0,28.2,00.0,38.1,30.7,26.7,-001.5,0030.34,0010.93,0007.36
2022-05-12 10:09:00,,0819.8,5.02,0.00,29.0,28.2,00.0,38.1,30.7,26.6,-001.3,0031.22,0010.93,0007.36
2022-05-12 10:10:00,,0819.8,5.01,0.00,28.9,28.2,00.0,38.0,30.7,26.5,-001.0,0031.84,0010.87,0007.35
2022-05-12 10:11:00,,0819.8,5.01,0.00,28.9,28.2,00.0,38.0,30.7,26.5,-000.8,0032.10,0010.78,0007.35
2022-05-12 10:12:00,,0819.8,5.00,0.00,28.9,28.1,00.0,38.0,30.6,26.6,-001.0,0032.69,0010.74,0007.33
2022-05-12 10:13:00,,0819.7,4.99,0.00,28.9,28.1,00.0,38.0,30.6,26.6,-001.3,0033.89,0010.74,0007.33
2022-05-12 10:14:00,,0819.8,4.99,0.00,28.9,28.1,00.0,38.0,30.6,26.7,-001.4,0032.55,0010.75,0007.32
2022-05-12 10:15:00,,0819.8,5.01,0.00,28.9,28.1,00.0,38.0,30.6,26.6,-001.1,0031.48,0010.77,0007.32
2022-05-12 10:16:00,,0819.8,5.01,0.00,28.8,28.1,00.0,38.0,30.6,26.7,-000.9,0030.98,0010.75,0007.33
2022-05-12 10:17:00,,0819.8,4.99,0.00,28.8,28.1,00.0,38.0,30.6,27.0,-000.8,0031.82,0010.75,0007.34
2022-05-12 10:18:00,,0819.8,5.00,0.00,28.8,28.0,00.0,37.9,30.5,27.7,-000.4,0033.08,0010.76,0007.35
2022-05-12 10:19:00,,0819.8,5.00,0.00,28.8,28.0,00.0,37.9,30.5,27.3,-000.3,0033.66,0010.74,0007.36
2022-05-12 10:20:00,,0819.8,4.99,0.00,28.8,28.0,00.0,37.9,30.5,27.0,-000.4,0033.74,0010.78,0007.38
2022-05-12 10:21:00,,0819.8,5.00,0.00,28.8,28.0,00.0,37.9,30.5,27.0,-001.0,0032.84,0010.89,0007.38
2022-05-12 10:22:00,,0819.8,5.01,0.00,28.8,28.0,00.0,37.9,30.5,27.1,-001.2,0033.76,0011.01,0007.39
2022-05-12 10:23:00,,0819.8,5.02,0.00,28.8,28.0,00.0,37.9,30.5,26.9,-001.0,0033.53,0011.02,0007.41
2022-05-12 10:24:00,,0819.8,5.01,0.00,28.8,28.0,00.0,37.9,30.5,26.9,-000.8,0031.71,0011.02,0007.40
2022-05-12 10:25:00,,0819.7,5.00,0.00,28.8,28.0,00.0,37.9,30.5,27.1,-001.1,0032.05,0011.01,0007.41
2022-05-12 10:26:00,,0819.7,5.00,0.00,28.8,28.0,00.0,37.9,30.5,27.3,-001.3,0032.59,0011.04,0007.44
2022-05-12 10:27:00,,0819.7,5.00,0.00,28.8,28.0,00.0,37.8,30.5,27.4,-001.2,0032.53,0011.15,0007.46
2022-05-12 10:28:00,,0819.8,5.00,0.00,28.8,28.0,00.0,37.8,30.5,27.4,-001.1,0031.71,0011.25,0007.48
2022-05-12 10:29:00,,0819.8,5.01,0.00,28.8,28.0,00.0,37.8,30.6,27.3,-001.5,0030.87,0011.39,0007.49
2022-05-12 10:30:00,,0819.7,5.01,0.00,28.8,28.0,00.0,37.8,30.5,27.2,-001.8,0031.16,0011.49,0007.51
2022-05-12 10:31:00,,0819.7,4.99,0.00,28.7,28.0,00.0,37.8,30.5,27.2,-002.1,0031.18,0011.50,0007.51
2022-05-12 10:32:00,,0819.7,5.00,0.00,28.7,28.1,00.0,37.8,30.5,27.1,-001.6,0031.61,0011.49,0007.53
2022-05-12 10:33:00,,0819.6,4.99,0.00,28.8,28.0,00.0,37.8,30.5,27.0,-001.5,0030.87,0011.45,0007.53
2022-05-12 10:34:00,,0819.7,5.00,0.00,28.8,28.0,00.0,37.8,30.6,27.1,-001.7,0030.85,0011.51,0007.54
2022-05-12 10:35:00,,0819.7,5.00,0.00,28.8,28.1,00.0,37.8,30.6,27.2,-001.6,0031.76,0011.47,0007.55
2022-05-12 10:36:00,,0819.7,5.00,0.00,28.8,28.1,00.0,37.8,30.6,27.2,-001.3,0031.59,0011.41,0007.56
2022-05-12 10:37:00,,0819.7,5.00,0.00,28.8,28.0,00.0,37.8,30.5,27.2,-001.1,0031.49,0011.37,0007.56
2022-05-12 10:38:00,,0819.7,5.01,0.00,28.7,28.0,00.0,37.8,30.5,27.3,-001.0,0031.31,0011.28,0007.57
2022-05-12 10:39:00,,0819.7,4.99,0.00,28.7,28.1,00.0,37.8,30.5,27.3,-001.2,0031.36,0011.21,0007.57
2022-05-12 10:40:00,,0819.7,5.01,0.00,28.7,28.1,00.0,37.8,30.5,27.3,-001.2,0033.14,0011.12,0007.57
2022-05-12 10:41:00,,0819.7,5.01,0.00,28.7,28.0,00.0,37.8,30.5,27.2,-001.2,0033.65,0011.05,0007.56
2022-05-12 10:42:00,,0819.7,5.01,0.00,28.7,28.1,00.0,37.8,30.5,27.2,-001.3,0034.26,0011.10,0007.56
2022-05-12 10:43:00,,0819.8,5.00,0.00,28.8,28.1,00.0,37.8,30.5,27.1,-001.4,0033.33,0011.22,0007.55
2022-05-12 10:44:00,,0819.8,4.99,0.00,28.8,28.1,00.0,37.8,30.6,27.1,-001.6,0032.71,0011.23,0007.55
2022-05-12 10:45:00,,0819.8,5.00,0.00,28.8,28.1,00.0,37.8,30.5,27.1,-001.6,0032.22,0011.17,0007.56
2022-05-12 10:46:00,,0819.8,5.00,0.00,28.8,28.1,00.0,37.8,30.6,27.0,-001.8,0031.45,0011.13,0007.55
2022-05-12 10:47:00,,0819.8,5.01,0.00,28.8,28.1,00.0,37.8,30.6,26.9,-001.7,0031.04,0011.21,0007.56
2022-05-12 10:48:00,,0819.8,5.00,0.00,28.8,28.1,00.0,37.8,30.6,26.9,-001.7,0031.16,0011.26,0007.55
2022-05-12 10:49:00,,0819.7,5.00,0.00,28.8,28.1,00.0,37.8,30.6,26.8,-001.8,0030.83,0011.27,0007.52
2022-05-12 10:50:00,,0819.7,5.01,0.00,28.8,28.1,00.0,37.8,30.6,26.7,-001.8,0030.91,0011.22,0007.50
2022-05-12 10:51:00,,0819.7,5.00,0.00,28.8,28.1,00.0,37.8,30.6,26.7,-001.6,0029.79,0011.19,0007.47
2022-05-12 10:52:00,,0819.7,4.99,0.00,28.8,28.1,00.0,37.8,30.6,26.7,-001.4,0028.55,0011.14,0007.46
2022-05-12 10:53:00,,0819.7,5.00,0.00,28.8,28.1,00.0,37.8,30.6,26.8,-001.3,0027.67,0010.99,0007.46
2022-05-12 10:54:00,,0819.7,4.99,0.00,28.8,28.1,00.0,37.8,30.6,26.8,-001.1,0026.96,0010.88,0007.50
2022-05-12 10:55:00,,0819.6,5.00,0.00,28.8,28.0,00.0,37.8,30.5,26.8,-000.9,0026.95,0010.90,0007.51
2022-05-12 10:56:00,,0819.7,5.01,0.00,28.8,28.0,00.0,37.8,30.5,26.7,-000.6,0027.17,0010.95,0007.52
2022-05-12 10:57:00,,0819.7,5.01,0.00,28.8,28.0,00.0,37.8,30.6,26.7,-000.6,0027.43,0010.94,0007.55
2022-05-12 10:58:00,,0819.7,5.00,0.00,28.8,28.0,00.0,37.8,30.6,26.6,-001.0,0028.00,0010.85,0007.54
2022-05-12 10:59:00,,0819.7,5.00,0.00,28.8,28.0,00.0,37.8,30.6,26.5,-001.3,0028.13,0010.90,0007.55
